Regional Weather Roundup
Issued by NWS Sioux Falls, SD

Home | Current Version | Previous Version | Text Only | Print | Product List | Glossary On
Versions: 1 2 3 4 5 6 7 8 9 10 11 12 13 14 15 16 17 18 19 20 21 22 23 24 25 26 27 28 29 30 31 32 33 34 35 36 37 38 39 40 41 42 43 44 45 46 47 48 49 50
000
ASUS43 KFSD 181210
RWRFSD

WEATHER ROUNDUP FOR SE SOUTH DAKOTA/SW MINNESOTA/NW IOWA
NATIONAL WEATHER SERVICE SIOUX FALLS SD
700 AM CDT THU SEP 18 2014

NOTE: "FAIR" INDICATES FEW OR NO CLOUDS BELOW 12,000 FEET WITH NO
SIGNIFICANT WEATHER AND OR OBSTRUCTIONS TO VISIBILITY.


SDZ038>040-050-052>070-181300-
SOUTHEAST SOUTH DAKOTA

CITY           SKY/WX    TMP DP  RH WIND       PRES   REMARKS
CHAMBERLAIN    MOCLDY    55  54  94 SE6       29.93S
6HR MIN TEMP:  53; 6HR MAX TEMP:  59;

HURON          CLEAR     52  50  93 SE3       29.94F
6HR MIN TEMP:  51; 6HR MAX TEMP:  59;

MADISON        FAIR      50  50 100 E6        29.99S
MITCHELL       PTCLDY    50  50 100 E5        29.95S FOG
6HR MIN TEMP:  50; 6HR MAX TEMP:  60;

SIOUX FALLS    PTCLDY    57  54  89 SE7       29.99R
6HR MIN TEMP:  52; 6HR MAX TEMP:  60;

WINNER         FAIR      58  56  93 E6        29.93R
YANKTON        CLEAR     55  54  94 SE5       29.98R
$$

MNZ071-072-080-081-089-090-097-098-181300-
SOUTHWEST MINNESOTA

CITY           SKY/WX    TMP DP  RH WIND       PRES   REMARKS
FAIRMONT       CLEAR     46  43  87 CALM      30.04R
JACKSON        CLEAR     52  48  87 S5        30.04R
LUVERNE        MOCLDY    54  52  94 CALM      30.01S
MARSHALL       MOCLDY    50  46  87 SE6       30.01R
6HR MIN TEMP:  46; 6HR MAX TEMP:  52;

MONTEVIDEO     FOG       52  52 100 SE10      30.03S VSB 3/4
PIPESTONE      MOCLDY    55  52  88 SE3       30.01R
REDWOOD FALLS  FOG       52  52 100 E8        30.03S VSB 1/4
TRACY          CLEAR     51  50  95 CALM      30.02R
WINDOM         CLEAR     48  48 100 CALM      30.03S FOG
WORTHINGTON    CLEAR     52  50  93 CALM      30.03R
$$

IAZ001>003-012>014-020>022-031-032-NEZ013-014-SDZ071-181300-
NORTHWEST IOWA

CITY           SKY/WX    TMP DP  RH WIND       PRES   REMARKS
CHEROKEE       CLEAR     50  50 100 CALM      30.03R
DENISON        PTCLDY    52  52 100 CALM      30.02R FOG
ESTHERVILLE    FOG       46  46 100 CALM      30.04R VSB 1/4
LE MARS          N/A     55  54  94 CALM      30.01R
ORANGE CITY    CLEAR     57  54  88 E5        30.01R
SHELDON        CLOUDY    52  52 100 SE6       30.01R
SIOUX CITY     PTCLDY    56  55  97 E5        30.00R
6HR MIN TEMP:  56; 6HR MAX TEMP:  60;

SPENCER        PTCLDY    48  46  93 E6        30.03R
6HR MIN TEMP:  47; 6HR MAX TEMP:  54;

STORM LAKE     CLEAR     52  52 100 SE8       30.03R FOG
$$

ABBREVIATIONS USED IN REMARKS
   TC - TEMPERATURE IN CELSIUS
  WCI - WIND CHILL INDEX
   HX - HEAT INDEX
  VSB - VISIBILITY



USA.gov is the U.S. government's official web portal to all federal, state and local government web resources and services.